Hill City, KS

7:20 AM CST on November 23, 2017 (GMT -0600)
Hill City Municipal

Weather History for KHLC - February, 2012

Change the Weather History Date:

Saturday, February 4, 2012

  Actual Average Record
Temperature  
Mean Temperature 27 °F 31 °F  
Max Temperature 33 °F 43 °F 75 °F (1946)
Min Temperature 20 °F 18 °F -13 °F (1989)
Degree Days  
Heating Degree Days 38    
Moisture  
Dew Point 29 °F    
Average Humidity 92    
Maximum Humidity 100    
Minimum Humidity 78    
Precipitation  
Precipitation T in 0.02 in 0.07 in (2004)
Month to date precipitation 0.66 0.07  
Year to date precipitation 0.67 0.52  
Sea Level Pressure  
Sea Level Pressure 30.32 in    
Wind  
Wind Speed 21 mph (North)    
Max Wind Speed 28 mph    
Max Gust Speed 32 mph    
Visibility 4 miles    
Events Snow    
T = Trace of Precipitation, MM = Missing Value Source: NWS Daily Summary

Daily Weather History Graph

Daily Weather History Graph

Search for Another Location

Airport or City:

Trip Planner

Search our weather history database for the weather conditions in past years. The results will help you decide how hot, cold, wet, or windy it might be!

Date:

Astronomy

Feb. 04, 2012 Rise Set
Actual Time 7:44 AM CST 6:02 PM CST
Civil Twilight 7:15 AM CST 6:30 PM CST
Nautical Twilight 6:44 AM CST 7:02 PM CST
Astronomical Twilight 6:12 AM CST 7:34 PM CST
Moon 3:02 PM CST (2/4) 5:10 AM CST (2/4)
Length of Visible Light 11h 15m
Length of Day
10h 18m
Waxing Gibbous, 89% of the Moon is Illuminated
Feb 4
Waxing Gibbous
Feb 7
Full
Feb 14
Last Quarter
Feb 21
New
Feb 29
First Quarter

Hourly Weather History & Observations

Time (CST) Temp. Windchill Dew Point Humidity Pressure Visibility Wind Dir Wind Speed Gust Speed Precip Events Conditions
12:06 AM 33.8 °F 21.3 °F 33.8 °F 100% 30.16 in 2.0 mi North 24.2 mph - 0.00 in Snow Light Snow
12:36 AM 33.8 °F 22.2 °F 33.8 °F 100% 30.16 in 2.0 mi North 20.7 mph - 0.00 in Snow Light Snow
12:53 AM 33.1 °F 20.6 °F 33.1 °F 100% 30.20 in 2.5 mi North 23.0 mph - 0.00 in Snow Light Snow
1:04 AM 33.8 °F 22.2 °F 33.8 °F 100% 30.16 in 1.8 mi North 20.7 mph - 0.00 in Snow Light Snow
1:13 AM 33.8 °F 22.2 °F 33.8 °F 100% 30.16 in 1.8 mi North 20.7 mph - 0.00 in Snow Light Snow
1:21 AM 33.8 °F 22.2 °F 33.8 °F 100% 30.16 in 2.5 mi North 20.7 mph - 0.00 in Snow Light Snow
1:24 AM 33.8 °F 22.2 °F 33.8 °F 100% 30.17 in 3.0 mi North 20.7 mph - 0.00 in Snow Light Snow
1:53 AM 33.1 °F 21.9 °F 33.1 °F 100% 30.22 in 3.0 mi North 18.4 mph - 0.00 in Snow Light Snow
2:19 AM 33.8 °F 23.5 °F 33.8 °F 100% 30.19 in 2.5 mi North 16.1 mph - 0.00 in Snow Light Snow
2:30 AM 33.8 °F 23.5 °F 33.8 °F 100% 30.19 in 1.8 mi North 16.1 mph - 0.00 in Snow Light Snow
2:53 AM 33.1 °F 22.2 °F 33.1 °F 100% 30.24 in 1.8 mi North 17.3 mph - 0.00 in Snow Light Snow
3:41 AM 33.8 °F 22.2 °F 33.8 °F 100% 30.21 in 2.0 mi North 20.7 mph - 0.00 in Snow Light Snow
3:48 AM 33.8 °F 21.9 °F 33.8 °F 100% 30.21 in 2.0 mi North 21.9 mph 27.6 mph 0.00 in Snow Light Snow
3:53 AM 33.1 °F 21.5 °F 33.1 °F 100% 30.26 in 2.0 mi North 19.6 mph - 0.00 in Snow Light Snow
4:04 AM 33.8 °F 21.6 °F 33.8 °F 100% 30.21 in 2.0 mi North 23.0 mph 27.6 mph 0.00 in Snow Light Snow
4:41 AM 33.8 °F 21.0 °F 32.0 °F 93% 30.22 in 3.0 mi North 25.3 mph 31.1 mph 0.00 in Snow Light Snow
4:53 AM 32.0 °F 19.2 °F 30.9 °F 96% 30.28 in 3.0 mi North 23.0 mph - 0.00 in Snow Light Snow
4:56 AM 32.0 °F 18.6 °F 30.2 °F 93% 30.23 in 3.0 mi North 25.3 mph - 0.00 in Snow Light Snow
5:18 AM 32.0 °F 19.5 °F 30.2 °F 93% 30.23 in 2.5 mi North 21.9 mph 31.1 mph 0.00 in Snow Light Snow
5:25 AM 32.0 °F 18.9 °F 30.2 °F 93% 30.24 in 3.0 mi North 24.2 mph 29.9 mph 0.00 in Snow Light Snow
5:34 AM 32.0 °F 18.1 °F 30.2 °F 93% 30.24 in 2.0 mi North 27.6 mph - 0.00 in Snow Light Snow
5:40 AM 32.0 °F 19.8 °F 30.2 °F 93% 30.24 in 3.0 mi North 20.7 mph 32.2 mph 0.00 in Snow Light Snow
5:53 AM 32.0 °F 19.8 °F 30.0 °F 92% 30.30 in 3.0 mi North 20.7 mph - 0.00 in Snow Light Snow
6:01 AM 30.2 °F 16.5 °F 30.2 °F 100% 30.25 in 2.5 mi North 24.2 mph - 0.00 in Snow Light Snow
6:48 AM 30.2 °F 17.1 °F 28.4 °F 93% 30.27 in 4.0 mi North 21.9 mph - 0.00 in   Overcast
6:53 AM 30.9 °F 17.8 °F 28.9 °F 92% 30.33 in 4.0 mi North 23.0 mph - 0.00 in Snow Light Snow
7:53 AM 30.9 °F 18.1 °F 28.9 °F 92% 30.36 in 2.0 mi North 21.9 mph - 0.00 in Snow Light Snow
8:11 AM 30.2 °F 16.5 °F 28.4 °F 93% 30.31 in 1.2 mi North 24.2 mph - 0.00 in Snow Light Snow
8:34 AM 30.2 °F 16.5 °F 28.4 °F 93% 30.31 in 1.8 mi North 24.2 mph 32.2 mph 0.00 in Snow Light Snow
8:43 AM 30.2 °F 16.8 °F 28.4 °F 93% 30.32 in 2.5 mi North 23.0 mph 31.1 mph 0.00 in Snow Light Snow
8:53 AM 30.9 °F 18.1 °F 28.9 °F 92% 30.38 in 2.5 mi North 21.9 mph - 0.00 in Snow Light Snow
9:00 AM 30.2 °F 17.1 °F 28.4 °F 93% 30.33 in 4.0 mi North 21.9 mph - 0.00 in   Overcast
9:13 AM 30.2 °F 17.1 °F 28.4 °F 93% 30.33 in 1.8 mi North 21.9 mph - 0.00 in Snow Light Snow
9:22 AM 30.2 °F 16.8 °F 28.4 °F 93% 30.33 in 1.0 mi North 23.0 mph 31.1 mph 0.00 in Snow Light Snow
9:30 AM 30.2 °F 15.7 °F 28.4 °F 93% 30.33 in 0.8 mi North 27.6 mph - 0.00 in Snow Light Snow
9:39 AM 30.2 °F 15.9 °F 28.4 °F 93% 30.34 in 0.8 mi North 26.5 mph - 0.00 in Snow Light Snow
9:48 AM 30.2 °F 16.5 °F 28.4 °F 93% 30.34 in 1.2 mi North 24.2 mph 32.2 mph 0.00 in Snow Light Snow
9:53 AM 30.9 °F 17.5 °F 28.9 °F 92% 30.40 in 1.5 mi North 24.2 mph - 0.00 in Snow Light Snow
10:14 AM 30.2 °F 16.8 °F 28.4 °F 93% 30.35 in 2.0 mi North 23.0 mph - 0.00 in Snow Light Snow
10:19 AM 32.0 °F 18.9 °F 28.4 °F 87% 30.35 in 3.0 mi North 24.2 mph - 0.00 in Snow Light Snow
10:28 AM 32.0 °F 19.2 °F 28.4 °F 87% 30.35 in 3.0 mi North 23.0 mph - 0.00 in Snow Light Snow
10:53 AM 32.0 °F 19.8 °F 28.9 °F 88% 30.42 in 5.0 mi NNW 20.7 mph - 0.00 in   Overcast
11:53 AM 32.0 °F 18.9 °F 28.0 °F 85% 30.43 in 7.0 mi NNW 24.2 mph - 0.00 in   Overcast
12:25 PM 33.8 °F 22.2 °F 28.4 °F 81% 30.36 in 7.0 mi NNW 20.7 mph - N/A   Overcast
12:53 PM 33.1 °F 21.9 °F 28.9 °F 85% 30.42 in 7.0 mi NNW 18.4 mph - N/A   Overcast
1:53 PM 33.1 °F 22.6 °F 28.9 °F 85% 30.42 in 6.0 mi NNW 16.1 mph - 0.00 in   Overcast
2:16 PM 33.8 °F 22.5 °F 28.4 °F 81% 30.36 in 7.0 mi NNW 19.6 mph - N/A   Overcast
2:53 PM 33.1 °F 22.2 °F 28.0 °F 82% 30.43 in 5.0 mi NNW 17.3 mph - 0.00 in Snow Light Snow
3:53 PM 33.1 °F 21.9 °F 27.0 °F 78% 30.43 in 10.0 mi NNW 18.4 mph - 0.00 in   Overcast
4:53 PM 32.0 °F 21.6 °F 27.0 °F 82% 30.45 in 10.0 mi NNW 15.0 mph - N/A   Overcast
5:53 PM 32.0 °F 22.1 °F 26.1 °F 79% 30.45 in 10.0 mi NNW 13.8 mph - N/A   Overcast
6:53 PM 30.9 °F 20.2 °F 27.0 °F 85% 30.47 in 10.0 mi North 15.0 mph - N/A   Overcast
7:53 PM 28.0 °F 16.5 °F 23.0 °F 81% 30.49 in 10.0 mi North 15.0 mph - N/A   Scattered Clouds
8:53 PM 25.0 °F 13.6 °F 21.0 °F 85% 30.50 in 10.0 mi North 12.7 mph - N/A   Clear
9:53 PM 23.0 °F - 19.0 °F 85% 30.51 in 10.0 mi North - - N/A   Scattered Clouds
10:53 PM 21.9 °F 10.4 °F 19.0 °F 89% 30.51 in 10.0 mi NNW 11.5 mph - N/A   Clear
11:53 PM 24.1 °F 13.7 °F 19.0 °F 81% 30.53 in 10.0 mi NW 10.4 mph - N/A   Clear